Weather History for Tacoma, WA

Change the Weather History Date:

Sunday, February 23, 2014

  Actual Average Record
Temperature  
Mean Temperature 40 °F -  
Max Temperature 43 °F 48 °F 64 °F (1958)
Min Temperature 36 °F 30 °F 24 °F (1998)
Degree Days  
Heating Degree Days 26    
Moisture  
Dew Point 40 °F    
Average Humidity 96    
Maximum Humidity 100    
Minimum Humidity 78    
Precipitation  
Precipitation 0.23 in - - ()
Sea Level Pressure  
Sea Level Pressure 29.99 in    
Wind  
Wind Speed 3 mph (NNE)    
Max Wind Speed 7 mph    
Max Gust Speed -    
Visibility 8 miles    
Events Rain    
Averages and records for this station are not official NWS values.
T = Trace of Precipitation, MM = Missing Value Source: NWS Daily Summary

Daily Weather History Graph

Daily Weather History Graph

Search for Another Location

Airport:

Trip Planner

Search our weather history database for the weather conditions in past years. The results will help you decide how hot, cold, wet, or windy it might be!

Date:

Astronomy

Feb. 23, 2014 Rise Set
Actual Time 7:00 AM PST 5:46 PM PST
Civil Twilight 6:29 AM PST 6:17 PM PST
Nautical Twilight 5:54 AM PST 6:52 PM PST
Astronomical Twilight 5:19 AM PST 7:28 PM PST
Moon 2:16 AM PST (2/23) 11:41 AM PST (2/23)
Length of Visible Light 11h 47m
Length of Day
10h 45m
Last Quarter, 38% of the Moon is Illuminated
Feb 23
Last Quarter
Mar 1
New
Mar 8
First Quarter
Mar 16
Full
Mar 23
Last Quarter

Hourly Weather History & Observations

Time (PST) Temp. Windchill Dew Point Humidity Pressure Visibility Wind Dir Wind Speed Gust Speed Precip Events Conditions
12:58 AM 37.8 °F 35.3 °F 37.6 °F 99% 30.07 in 10.0 mi South 3.5 mph - N/A   Overcast
1:58 AM 36.3 °F 32.5 °F 36.0 °F 99% 30.06 in 10.0 mi South 4.6 mph - N/A   Overcast
2:58 AM 36.9 °F 33.1 °F 36.5 °F 99% 30.04 in 10.0 mi South 4.6 mph - N/A   Overcast
3:58 AM 39.0 °F - 36.7 °F 91% 30.03 in 10.0 mi SSE 2.3 mph - N/A   Overcast
4:58 AM 37.8 °F 35.3 °F 37.6 °F 99% 30.01 in 10.0 mi South 3.5 mph - N/A   Overcast
5:58 AM 38.3 °F - 37.9 °F 99% 30.01 in 10.0 mi SSW 2.3 mph - N/A   Overcast
6:58 AM 38.5 °F - 38.3 °F 99% 30.00 in 10.0 mi SSE 2.3 mph - N/A   Overcast
7:58 AM 39.4 °F 37.2 °F 37.4 °F 93% 29.99 in 10.0 mi South 3.5 mph - N/A   Overcast
8:58 AM 40.5 °F 38.4 °F 37.9 °F 91% 29.98 in 10.0 mi South 3.5 mph - N/A   Overcast
9:58 AM 41.7 °F - 37.4 °F 85% 29.99 in 10.0 mi SSE 1.2 mph - N/A   Clear
10:58 AM 42.8 °F - 36.7 °F 79% 29.98 in 10.0 mi South 2.3 mph - N/A   Mostly Cloudy
11:58 AM 43.3 °F - 37.2 °F 79% 29.97 in 10.0 mi Calm Calm - N/A   Scattered Clouds
12:58 PM 43.7 °F - 37.4 °F 78% 29.97 in 10.0 mi Calm Calm - N/A   Partly Cloudy
12:59 PM 42.8 °F - 37.4 °F 81% 29.95 in 10.0 mi Calm Calm - N/A Rain Light Rain
1:24 PM 42.8 °F - 37.4 °F 81% 29.95 in 10.0 mi Calm Calm - N/A Rain Light Rain
1:34 PM 42.8 °F - 37.4 °F 81% 29.95 in 10.0 mi Calm Calm - N/A Rain Light Rain
1:58 PM 43.2 °F - 40.3 °F 90% 29.97 in 9.0 mi ENE 2.3 mph - 0.02 in Rain Light Rain
2:12 PM 42.8 °F - 41.0 °F 93% 29.95 in 8.0 mi East 1.2 mph - N/A Rain Light Rain
2:58 PM 42.6 °F - 42.3 °F 99% 29.97 in 9.0 mi Calm Calm - 0.05 in Rain Light Rain
3:37 PM 42.8 °F - 42.8 °F 100% 29.96 in 6.0 mi Calm Calm - N/A Rain Light Rain
3:47 PM 42.8 °F - 42.8 °F 100% 29.96 in 6.0 mi Calm Calm - N/A Rain Light Rain
3:52 PM 42.8 °F - 42.8 °F 100% 29.96 in 5.0 mi North 1.2 mph - N/A Rain Light Rain
3:58 PM 42.6 °F - 42.3 °F 99% 29.98 in 5.0 mi Calm Calm - 0.05 in Rain Light Rain
4:13 PM 42.8 °F - 42.8 °F 100% 29.96 in 7.0 mi Calm Calm - N/A Rain Light Rain
4:23 PM 42.8 °F - 42.8 °F 100% 29.96 in 4.0 mi Calm Calm - N/A Rain Light Rain
4:33 PM 42.8 °F - 42.8 °F 100% 29.95 in 6.0 mi NE 2.3 mph - N/A Rain Light Rain
4:38 PM 42.8 °F - 42.8 °F 100% 29.95 in 7.0 mi North 2.3 mph - N/A Rain Light Rain
4:43 PM 42.8 °F 39.3 °F 42.8 °F 100% 29.96 in 8.0 mi West 5.8 mph - N/A Rain Light Rain
4:58 PM 42.3 °F - 42.1 °F 99% 29.98 in 6.0 mi NW 2.3 mph - 0.02 in Rain Light Rain
5:13 PM 42.8 °F 41.1 °F 41.0 °F 93% 29.97 in 7.0 mi NW 3.5 mph - N/A Rain Light Rain
5:18 PM 41.0 °F 38.0 °F 41.0 °F 100% 29.97 in 7.0 mi NW 4.6 mph - N/A Rain Light Rain
5:23 PM 41.0 °F 39.0 °F 41.0 °F 100% 29.97 in 7.0 mi NW 3.5 mph - N/A Rain Light Rain
5:28 PM 41.0 °F 36.4 °F 41.0 °F 100% 29.97 in 7.0 mi North 6.9 mph - N/A Rain Light Rain
5:58 PM 40.8 °F 38.8 °F 40.5 °F 99% 30.00 in 7.0 mi North 3.5 mph - 0.03 in Rain Light Rain
6:58 PM 39.9 °F 37.8 °F 39.7 °F 99% 30.00 in 9.0 mi North 3.5 mph - 0.03 in Rain Light Rain
7:38 PM 41.0 °F - 39.2 °F 93% 29.99 in 6.0 mi NNE 2.3 mph - N/A   Light Drizzle
7:48 PM 41.0 °F 38.0 °F 39.2 °F 93% 30.00 in 6.0 mi North 4.6 mph - N/A Rain Light Rain
7:53 PM 41.0 °F - 41.0 °F 100% 29.99 in 5.0 mi North 2.3 mph - N/A Rain Light Rain
7:58 PM 40.1 °F - 40.1 °F 100% 30.01 in 5.0 mi North 2.3 mph - 0.01 in Rain Light Rain
8:08 PM 39.2 °F 37.0 °F 39.2 °F 100% 30.00 in 5.0 mi North 3.5 mph - N/A   Light Drizzle
8:18 PM 39.2 °F 35.9 °F 39.2 °F 100% 30.00 in 4.0 mi North 4.6 mph - N/A   Light Drizzle
8:28 PM 39.2 °F 37.0 °F 39.2 °F 100% 30.00 in 6.0 mi NNE 3.5 mph - N/A   Light Drizzle
8:33 PM 41.0 °F - 41.0 °F 100% 30.01 in 6.0 mi NNE 2.3 mph - N/A   Light Drizzle
8:38 PM 41.0 °F 38.0 °F 41.0 °F 100% 30.00 in 6.0 mi NE 4.6 mph - N/A   Light Drizzle
8:58 PM 39.9 °F - 39.9 °F 100% 30.02 in 5.0 mi Calm Calm - 0.01 in   Light Drizzle
9:15 PM 39.2 °F 35.9 °F 39.2 °F 100% 30.01 in 6.0 mi North 4.6 mph - N/A   Overcast
9:26 PM 39.2 °F 37.0 °F 39.2 °F 100% 30.01 in 7.0 mi North 3.5 mph - N/A   Light Drizzle
9:51 PM 41.0 °F 38.0 °F 41.0 °F 100% 30.01 in 6.0 mi NNE 4.6 mph - N/A   Overcast
9:58 PM 40.1 °F 36.9 °F 40.1 °F 100% 30.03 in 6.0 mi NNE 4.6 mph - 0.00 in   Overcast
10:58 PM 39.4 °F 35.2 °F 39.4 °F 100% 30.04 in 9.0 mi NE 5.8 mph - N/A   Overcast
11:58 PM 38.7 °F 33.6 °F 38.7 °F 100% 30.06 in 7.0 mi NNE 6.9 mph - 0.01 in   Overcast